TimeMDT,TemperatureF,Dew PointF,Humidity,Sea Level PressureIn,VisibilityMPH,Wind Direction,Wind SpeedMPH,Gust SpeedMPH,PrecipitationIn,Events,Conditions,WindDirDegrees,DateUTC
12:53 AM,26.1,23.0,88,30.24,10.0,Calm,Calm,-,N/A,,Clear,0,2013-11-02 06:53:00
1:53 AM,26.1,23.0,88,30.22,10.0,West,6.9,-,N/A,,Clear,270,2013-11-02 07:53:00
2:53 AM,25.0,21.9,88,30.21,10.0,WNW,4.6,-,N/A,,Clear,290,2013-11-02 08:53:00
3:53 AM,24.1,21.0,88,30.19,10.0,West,6.9,-,N/A,,Clear,260,2013-11-02 09:53:00
4:53 AM,23.0,19.9,88,30.18,10.0,West,3.5,-,N/A,,Clear,260,2013-11-02 10:53:00
5:53 AM,21.9,19.0,89,30.19,10.0,West,5.8,-,N/A,,Clear,270,2013-11-02 11:53:00
6:53 AM,19.9,17.1,89,30.27,10.0,WSW,3.5,-,N/A,,Clear,250,2013-11-02 12:53:00
7:53 AM,21.0,18.0,88,30.28,10.0,West,5.8,-,N/A,,Clear,260,2013-11-02 13:53:00
8:53 AM,26.1,21.0,81,30.26,10.0,West,5.8,-,N/A,,Clear,260,2013-11-02 14:53:00
9:53 AM,34.0,27.0,75,30.25,10.0,WSW,3.5,-,N/A,,Clear,250,2013-11-02 15:53:00
10:53 AM,44.1,24.1,45,30.19,10.0,South,9.2,-,N/A,,Clear,170,2013-11-02 16:53:00
11:53 AM,46.0,21.9,39,30.16,10.0,SSE,9.2,-,N/A,,Clear,160,2013-11-02 17:53:00
12:53 PM,46.9,21.0,36,30.12,10.0,SE,11.5,-,N/A,,Clear,140,2013-11-02 18:53:00
1:53 PM,48.9,21.9,35,30.06,10.0,SE,9.2,-,N/A,,Clear,140,2013-11-02 19:53:00
2:53 PM,50.0,25.0,38,30.01,10.0,SE,10.4,-,N/A,,Clear,140,2013-11-02 20:53:00
3:53 PM,50.0,25.0,38,29.99,10.0,SSE,11.5,-,N/A,,Clear,150,2013-11-02 21:53:00
4:53 PM,48.9,25.0,39,29.99,10.0,SSE,10.4,-,N/A,,Clear,150,2013-11-02 22:53:00
5:53 PM,46.0,24.1,42,30.00,10.0,SSE,11.5,-,N/A,,Clear,150,2013-11-02 23:53:00
6:53 PM,39.0,25.0,57,30.02,10.0,SSE,6.9,-,N/A,,Clear,160,2013-11-03 00:53:00
7:53 PM,32.0,24.1,73,30.05,10.0,Calm,Calm,-,N/A,,Clear,0,2013-11-03 01:53:00
8:53 PM,27.0,24.1,89,30.04,10.0,WSW,6.9,-,N/A,,Clear,250,2013-11-03 02:53:00
9:53 PM,26.1,23.0,88,29.99,10.0,WSW,4.6,-,N/A,,Clear,250,2013-11-03 03:53:00
10:53 PM,27.0,24.1,89,29.92,10.0,WSW,3.5,-,N/A,,Clear,250,2013-11-03 04:53:00
11:53 PM,25.0,23.0,92,29.90,10.0,West,5.8,-,N/A,,Clear,280,2013-11-03 05:53:00